Погода в Уилмингтоне

США     39°44′45″N   75°32′50″W
темп.,
°C
ветер,
м/с
пор.,
м/с
влажн.,
%
обл.,
%
осадки,
мм/ч
давл.,
гПа
погр.,
м
19 апреля, пн
пн1923:00+10ююз11745 0.0 101213
02:00+9ююз117879 0.0 101210
05:00+8з1174100 0.0 101111
08:00+10з1267100 0.0 1012136
11:00+16юз1250100 0.0 1011747
14:00+17юз4446100 0.1 10101817
17:00+16юз4453100 0.2 10101232
20:00+12ю24741 0.3 101291
20 апреля, вт
вт2023:00+10ююз25862 0.0 1013136
02:00+9юз28873 0.0 1013199
05:00+8юз29900 0.0 1013200
08:00+11зюз311765 0.0 1015323
11:00+17з4750100 0.0 10161091
14:00+20з484251 0.0 10152166
17:00+16ссз3559100 0.0 1014344
20:00+15в2264100 0.0 101448
21 апреля, ср
ср2123:00+14ююв396878 0.0 1014563
02:00+13ю4147344 0.0 1012598
05:00+12ю4148292 0.0 1010640
08:00+13ю5138091 0.2 1008745
11:00+18ююз7156592 0.1 10051332
14:00+15з91280100 2.6 10041160
17:00+10сз8146328 1.0 10061557
20:00+7сз6125772 1.1 10091640
22 апреля, чт
чт2223:00+5зсз5126456 0.1 10121481
02:00+2зсз611603 0.1 10131146
05:00+1зсз614594 0.0 10141321
08:00+2з613571 0.0 10161390
11:00+7зсз71234100 0.0 10162677
14:00+10зсз81329100 0.0 10143303
17:00+10зсз7133926 0.0 10142930
20:00+8зсз512475 0.0 10161503
23 апреля, пт
пт2323:00+6зсз511571 0.0 10181125
02:00+4з412660 0.0 1018657
05:00+4з514670 0.0 1018687
08:00+6з614590 0.0 1019743
11:00+12зсз711420 0.0 10191279
14:00+15зсз7103785 0.0 10182307
17:00+17з6103548 0.0 10172534
20:00+13зюз4115391 0.0 1018485